TimeMST,TemperatureF,Dew PointF,Humidity,Sea Level PressureIn,VisibilityMPH,Wind Direction,Wind SpeedMPH,Gust SpeedMPH,PrecipitationIn,Events,Conditions,WindDirDegrees,DateUTC
12:15 AM,23.2,15.4,72,30.37,10.0,NW,5.8,-,N/A,,Clear,320,2013-02-03 07:15:00
12:35 AM,21.9,14.4,73,30.37,10.0,NW,6.9,-,N/A,,Clear,320,2013-02-03 07:35:00
12:55 AM,21.7,13.6,71,30.36,10.0,NNW,6.9,-,N/A,,Clear,330,2013-02-03 07:55:00
1:15 AM,23.2,14.7,70,30.35,10.0,NW,6.9,-,N/A,,Clear,310,2013-02-03 08:15:00
1:35 AM,21.9,12.9,68,30.34,10.0,NNW,8.1,-,N/A,,Clear,340,2013-02-03 08:35:00
1:55 AM,20.8,12.4,70,30.33,10.0,NW,6.9,-,N/A,,Clear,320,2013-02-03 08:55:00
2:15 AM,22.5,13.6,69,30.33,10.0,NNW,5.8,-,N/A,,Clear,330,2013-02-03 09:15:00
2:35 AM,22.1,12.7,67,30.33,10.0,NW,4.6,-,N/A,,Clear,310,2013-02-03 09:35:00
2:55 AM,23.9,15.3,70,30.32,10.0,NNW,5.8,-,N/A,,Clear,330,2013-02-03 09:55:00
3:15 AM,24.8,16.3,70,30.32,10.0,NW,5.8,-,N/A,,Clear,310,2013-02-03 10:15:00
3:35 AM,24.8,16.7,71,30.30,10.0,NW,5.8,-,N/A,,Clear,310,2013-02-03 10:35:00
3:55 AM,25.2,17.1,71,30.30,10.0,NW,5.8,-,N/A,,Clear,310,2013-02-03 10:55:00
4:15 AM,23.9,16.3,73,30.29,10.0,NW,4.6,-,N/A,,Clear,320,2013-02-03 11:15:00
4:35 AM,23.5,16.2,73,30.29,10.0,NW,5.8,-,N/A,,Clear,310,2013-02-03 11:35:00
4:55 AM,22.8,15.4,73,30.29,10.0,NW,5.8,-,N/A,,Clear,310,2013-02-03 11:55:00
5:15 AM,23.0,16.5,76,30.28,10.0,WNW,6.9,-,N/A,,Clear,300,2013-02-03 12:15:00
5:35 AM,21.7,16.0,78,30.27,10.0,NW,4.6,-,N/A,,Clear,310,2013-02-03 12:35:00
5:55 AM,20.8,15.3,79,30.27,10.0,NNW,4.6,-,N/A,,Clear,330,2013-02-03 12:55:00
6:15 AM,20.5,15.1,80,30.26,10.0,NW,4.6,-,N/A,,Clear,320,2013-02-03 13:15:00
6:35 AM,18.3,13.3,81,30.26,10.0,Calm,Calm,-,N/A,,Mostly Cloudy,0,2013-02-03 13:35:00
6:55 AM,18.1,13.3,81,30.26,10.0,Calm,Calm,-,N/A,,Overcast,0,2013-02-03 13:55:00
7:15 AM,20.7,14.4,77,30.26,10.0,WNW,4.6,-,N/A,,Overcast,300,2013-02-03 14:15:00
7:35 AM,23.0,15.4,73,30.26,10.0,Calm,Calm,-,N/A,,Mostly Cloudy,0,2013-02-03 14:35:00
7:55 AM,23.9,15.1,69,30.25,10.0,Calm,Calm,-,N/A,,Overcast,0,2013-02-03 14:55:00
8:15 AM,25.2,15.6,67,30.25,10.0,Calm,Calm,-,N/A,,Overcast,0,2013-02-03 15:15:00
8:35 AM,26.6,15.8,64,30.25,10.0,NNW,3.5,-,N/A,,Overcast,330,2013-02-03 15:35:00
8:55 AM,27.5,16.5,63,30.24,10.0,NW,3.5,-,N/A,,Overcast,320,2013-02-03 15:55:00
9:15 AM,29.7,17.4,60,30.24,10.0,NNW,3.5,-,N/A,,Overcast,330,2013-02-03 16:15:00
9:35 AM,32.0,18.1,57,30.24,10.0,NNW,3.5,-,N/A,,Overcast,340,2013-02-03 16:35:00
9:55 AM,32.9,19.8,59,30.23,10.0,NW,4.6,-,N/A,,Overcast,320,2013-02-03 16:55:00
10:15 AM,34.5,19.9,55,30.23,10.0,Calm,Calm,-,N/A,,Overcast,0,2013-02-03 17:15:00
10:35 AM,36.5,20.1,52,30.22,10.0,North,4.6,-,N/A,,Overcast,360,2013-02-03 17:35:00
10:55 AM,38.3,20.8,50,30.22,10.0,North,3.5,-,N/A,,Overcast,350,2013-02-03 17:55:00
11:15 AM,39.9,20.3,45,30.21,10.0,North,4.6,-,N/A,,Overcast,350,2013-02-03 18:15:00
11:35 AM,41.2,20.5,44,30.20,10.0,North,5.8,-,N/A,,Overcast,350,2013-02-03 18:35:00
11:55 AM,43.0,20.5,41,30.20,10.0,Calm,Calm,-,N/A,,Overcast,0,2013-02-03 18:55:00
12:15 PM,44.6,20.5,38,30.18,10.0,NNW,4.6,-,N/A,,Overcast,330,2013-02-03 19:15:00
12:35 PM,45.7,19.9,36,30.16,10.0,NW,4.6,-,N/A,,Overcast,320,2013-02-03 19:35:00
12:55 PM,46.9,19.8,34,30.15,10.0,Calm,Calm,-,N/A,,Overcast,0,2013-02-03 19:55:00
1:15 PM,48.2,19.4,32,30.14,10.0,NW,3.5,-,N/A,,Overcast,310,2013-02-03 20:15:00
1:55 PM,49.8,19.4,30,30.11,10.0,Calm,Calm,-,N/A,,Overcast,0,2013-02-03 20:55:00
2:15 PM,51.8,19.2,28,30.10,10.0,Calm,Calm,-,N/A,,Overcast,0,2013-02-03 21:15:00
2:35 PM,54.5,21.0,27,30.09,10.0,NW,13.8,18.4,N/A,,Overcast,310,2013-02-03 21:35:00
2:55 PM,54.1,21.0,27,30.09,10.0,WNW,11.5,16.1,N/A,,Overcast,300,2013-02-03 21:55:00
3:15 PM,53.1,20.3,28,30.08,10.0,West,9.2,-,N/A,,Overcast,280,2013-02-03 22:15:00
3:35 PM,52.9,22.5,31,30.07,10.0,West,6.9,-,N/A,,Overcast,260,2013-02-03 22:35:00
3:55 PM,53.2,24.6,33,30.07,10.0,West,11.5,-,N/A,,Overcast,270,2013-02-03 22:55:00
4:15 PM,52.9,24.8,34,30.07,10.0,West,10.4,-,N/A,,Overcast,260,2013-02-03 23:15:00
4:55 PM,46.9,25.7,44,30.08,10.0,NNW,10.4,-,N/A,,Overcast,340,2013-02-03 23:55:00
5:15 PM,45.9,27.9,49,30.08,10.0,North,10.4,-,N/A,,Overcast,350,2013-02-04 00:15:00
5:35 PM,44.6,28.6,53,30.09,10.0,NNW,12.7,-,N/A,,Overcast,340,2013-02-04 00:35:00
5:55 PM,43.3,29.3,58,30.09,10.0,North,10.4,-,N/A,,Overcast,350,2013-02-04 00:55:00
6:15 PM,42.4,29.3,60,30.10,10.0,North,8.1,-,N/A,,Overcast,350,2013-02-04 01:15:00
6:35 PM,41.0,28.9,62,30.10,10.0,NNW,8.1,-,N/A,,Overcast,330,2013-02-04 01:35:00
6:55 PM,40.5,28.4,62,30.10,10.0,NW,6.9,-,N/A,,Overcast,320,2013-02-04 01:55:00
7:15 PM,40.3,28.4,63,30.10,10.0,NW,5.8,-,N/A,,Overcast,320,2013-02-04 02:15:00
7:35 PM,40.5,27.5,60,30.10,10.0,NW,8.1,-,N/A,,Overcast,310,2013-02-04 02:35:00
7:55 PM,40.1,27.5,61,30.11,10.0,WNW,6.9,-,N/A,,Overcast,300,2013-02-04 02:55:00
8:15 PM,40.1,27.3,60,30.11,10.0,NW,5.8,-,N/A,,Overcast,310,2013-02-04 03:15:00
8:35 PM,40.1,27.3,60,30.12,10.0,NW,4.6,-,N/A,,Overcast,320,2013-02-04 03:35:00
8:55 PM,39.2,27.1,62,30.12,10.0,NNW,3.5,-,N/A,,Overcast,340,2013-02-04 03:55:00
9:15 PM,38.7,27.1,63,30.11,10.0,NNW,3.5,-,N/A,,Overcast,340,2013-02-04 04:15:00
9:35 PM,37.8,26.8,65,30.11,10.0,NNW,4.6,-,N/A,,Overcast,330,2013-02-04 04:35:00
9:55 PM,38.1,27.0,64,30.10,10.0,Calm,Calm,-,N/A,,Overcast,0,2013-02-04 04:55:00
10:15 PM,37.2,27.1,67,30.10,10.0,Calm,Calm,-,N/A,,Overcast,0,2013-02-04 05:15:00
10:35 PM,36.9,27.0,67,30.10,10.0,Calm,Calm,-,N/A,,Overcast,0,2013-02-04 05:35:00
10:55 PM,36.9,26.8,67,30.10,10.0,Calm,Calm,-,N/A,,Overcast,0,2013-02-04 05:55:00
11:15 PM,36.7,27.0,68,30.10,10.0,NW,3.5,-,N/A,,Overcast,310,2013-02-04 06:15:00
11:35 PM,37.6,27.5,67,30.09,10.0,NW,5.8,-,N/A,,Overcast,320,2013-02-04 06:35:00
11:55 PM,35.6,26.4,69,30.09,10.0,NW,4.6,-,N/A,,Overcast,320,2013-02-04 06:55:00